Weather History for Carlsbad, NM

Change the Weather History Date:

Tuesday, February 5, 2013

  Actual Average Record
Temperature  
Mean Temperature 51 °F -  
Max Temperature 70 °F 58 °F 79 °F (2006)
Min Temperature 32 °F 30 °F 12 °F (1989)
Degree Days  
Heating Degree Days 14    
Growing Degree Days 1 (Base 50)    
Moisture  
Dew Point 19 °F    
Average Humidity 33    
Maximum Humidity 54    
Minimum Humidity 14    
Precipitation  
Precipitation 0.00 in - - ()
Sea Level Pressure  
Sea Level Pressure 29.91 in    
Wind  
Wind Speed 4 mph (NNW)    
Max Wind Speed 10 mph    
Max Gust Speed -    
Visibility 10 miles    
Events      
Averages and records for this station are not official NWS values.
T = Trace of Precipitation, MM = Missing Value Source: NWS Daily Summary

Daily Weather History Graph

Daily Weather History Graph

Search for Another Location

Airport:

Trip Planner

Search our weather history database for the weather conditions in past years. The results will help you decide how hot, cold, wet, or windy it might be!

Date:

Astronomy

Feb. 05, 2013 Rise Set
Actual Time 6:48 AM MST 5:34 PM MST
Civil Twilight 6:22 AM MST 5:59 PM MST
Nautical Twilight 5:53 AM MST 6:29 PM MST
Astronomical Twilight 5:24 AM MST 6:57 PM MST
Moon 2:26 AM MST (2/5) 1:00 PM MST (2/5)
Length of Visible Light 11h 37m
Length of Day
10h 46m
Waning Crescent, 26% of the Moon is Illuminated
Feb 5
Waning Crescent
Feb 10
New
Feb 17
First Quarter
Feb 25
Full
Mar 4
Last Quarter

Hourly Weather History & Observations

Time (MST) Temp. Windchill Dew Point Humidity Pressure Visibility Wind Dir Wind Speed Gust Speed Precip Events Conditions
12:53 AM 39.9 °F 35.8 °F 16.0 °F 38% 29.91 in 10.0 mi North 5.8 mph - N/A   Clear
1:53 AM 37.0 °F - 16.0 °F 42% 29.91 in 10.0 mi Calm Calm - N/A   Clear
2:53 AM 35.1 °F - 16.0 °F 46% 29.91 in 10.0 mi Calm Calm - N/A   Clear
3:53 AM 32.0 °F - 16.0 °F 52% 29.91 in 10.0 mi Calm Calm - N/A   Clear
4:53 AM 33.1 °F 26.9 °F 17.1 °F 52% 29.91 in 10.0 mi North 6.9 mph - N/A   Clear
5:53 AM 33.1 °F 28.7 °F 18.0 °F 54% 29.93 in 10.0 mi NNW 4.6 mph - N/A   Clear
6:53 AM 33.1 °F 26.9 °F 18.0 °F 54% 29.96 in 10.0 mi North 6.9 mph - N/A   Clear
7:53 AM 41.0 °F 39.0 °F 19.0 °F 41% 29.96 in 10.0 mi NW 3.5 mph - N/A   Clear
8:53 AM 48.2 °F - 19.4 °F 32% 30.02 in 10.0 mi North 8.1 mph - N/A   Clear
9:53 AM 54.0 °F - 21.9 °F 29% 29.97 in 10.0 mi North 8.1 mph - N/A   Clear
10:53 AM 61.0 °F - 24.1 °F 24% 29.94 in 10.0 mi Variable 4.6 mph - N/A   Clear
11:53 AM 66.0 °F - 21.9 °F 19% 29.91 in 10.0 mi NE 6.9 mph - N/A   Clear
12:53 PM 68.0 °F - 21.9 °F 17% 29.88 in 10.0 mi Variable 3.5 mph - N/A   Clear
1:53 PM 69.1 °F - 19.9 °F 15% 29.86 in 10.0 mi Variable 3.5 mph - N/A   Clear
2:53 PM 70.0 °F - 19.0 °F 14% 29.84 in 10.0 mi Variable 5.8 mph - N/A   Clear
3:53 PM 70.0 °F - 18.0 °F 14% 29.85 in 10.0 mi Calm Calm - N/A   Clear
4:53 PM 68.0 °F - 17.1 °F 14% 29.84 in 10.0 mi East 3.5 mph - N/A   Clear
5:53 PM 61.0 °F - 18.0 °F 19% 29.87 in 10.0 mi SE 3.5 mph - N/A   Clear
6:53 PM 48.0 °F - 19.0 °F 32% 29.90 in 10.0 mi SSW 5.8 mph - N/A   Clear
7:53 PM 46.0 °F 42.5 °F 19.9 °F 35% 29.90 in 10.0 mi West 6.9 mph - N/A   Clear
8:53 PM 45.0 °F 40.6 °F 21.0 °F 39% 29.91 in 10.0 mi West 8.1 mph - N/A   Clear
9:53 PM 46.9 °F - 21.0 °F 36% 29.90 in 10.0 mi WNW 4.6 mph - N/A   Clear
10:53 PM 46.0 °F 41.0 °F 21.0 °F 37% 29.89 in 10.0 mi West 10.4 mph - N/A   Clear
11:53 PM 44.6 °F 40.7 °F 21.2 °F 39% 29.96 in 10.0 mi WNW 6.9 mph - N/A   Clear